Madison, SD

1:59 PM CST on November 21, 2017 (GMT -0600)
Madison Municipal

Weather History for KMDS - November, 2012

Change the Weather History Date:

Friday, November 16, 2012

  Actual Average Record
Temperature  
Mean Temperature 30 °F -  
Max Temperature 46 °F 41 °F 59 °F (2016)
Min Temperature 15 °F 22 °F -5 °F (2014)
Degree Days  
Heating Degree Days 34    
Moisture  
Dew Point 24 °F    
Average Humidity 80    
Maximum Humidity 100    
Minimum Humidity 46    
Precipitation  
Precipitation 0.00 in - - ()
Sea Level Pressure  
Sea Level Pressure 30.31 in    
Wind  
Wind Speed 8 mph (SSE)    
Max Wind Speed 18 mph    
Max Gust Speed 25 mph    
Visibility 10 miles    
Events      
Averages and records for this station are not official NWS values.
T = Trace of Precipitation, MM = Missing Value Source: NWS Daily Summary

Daily Weather History Graph

Daily Weather History Graph

Search for Another Location

Airport or City:

Trip Planner

Search our weather history database for the weather conditions in past years. The results will help you decide how hot, cold, wet, or windy it might be!

Date:

Astronomy

Nov. 16, 2012 Rise Set
Actual Time 7:25 AM CST 5:00 PM CST
Civil Twilight 6:54 AM CST 5:31 PM CST
Nautical Twilight 6:19 AM CST 6:07 PM CST
Astronomical Twilight 5:44 AM CST 6:41 PM CST
Moon 10:22 AM CST (11/16) 8:00 PM CST (11/16)
Length of Visible Light 10h 37m
Length of Day
9h 35m
Waxing Crescent, 12% of the Moon is Illuminated
Nov 16
Waxing Crescent
Nov 20
First Quarter
Nov 28
Full
Dec 6
Last Quarter
Dec 13
New

Hourly Weather History & Observations

Time (CST) Temp. Windchill Dew Point Humidity Pressure Visibility Wind Dir Wind Speed Gust Speed Precip Events Conditions
12:00 AM 19.4 °F - 17.6 °F 93% 30.45 in 10.0 mi Calm Calm - N/A   Clear
12:20 AM 19.4 °F - 19.4 °F 100% 30.45 in 10.0 mi Calm Calm - N/A   Clear
12:40 AM 19.4 °F 14.3 °F 19.4 °F 100% 30.45 in 10.0 mi East 3.5 mph - N/A   Clear
1:00 AM 15.8 °F - 15.8 °F 100% 30.45 in 10.0 mi Calm Calm - N/A   Clear
1:20 AM 17.6 °F 10.7 °F 17.6 °F 100% 30.44 in 10.0 mi ENE 4.6 mph - N/A   Clear
1:40 AM 17.6 °F 10.7 °F 17.6 °F 100% 30.43 in 10.0 mi ENE 4.6 mph - N/A   Clear
2:00 AM 17.6 °F - 17.6 °F 100% 30.44 in 10.0 mi Calm Calm - N/A   Clear
2:20 AM 17.6 °F 10.7 °F 17.6 °F 100% 30.43 in 10.0 mi East 4.6 mph - N/A   Clear
2:40 AM 17.6 °F 9.3 °F 17.6 °F 100% 30.43 in 10.0 mi East 5.8 mph - N/A   Clear
3:00 AM 15.8 °F 8.6 °F 15.8 °F 100% 30.43 in 10.0 mi ESE 4.6 mph - N/A   Clear
3:20 AM 15.8 °F 6.1 °F 15.8 °F 100% 30.42 in 10.0 mi SE 6.9 mph - N/A   Clear
3:40 AM 15.8 °F 7.2 °F 15.8 °F 100% 30.41 in 10.0 mi SSE 5.8 mph - N/A   Clear
4:00 AM 17.6 °F 8.2 °F 17.6 °F 100% 30.41 in 10.0 mi SSE 6.9 mph - N/A   Clear
4:20 AM 19.4 °F 10.4 °F 19.4 °F 100% 30.40 in 10.0 mi SE 6.9 mph - N/A   Clear
4:40 AM 17.6 °F 9.3 °F 17.6 °F 100% 30.40 in 10.0 mi SE 5.8 mph - N/A   Clear
5:00 AM 17.6 °F 9.3 °F 17.6 °F 100% 30.39 in 10.0 mi SE 5.8 mph - N/A   Clear
5:20 AM 17.6 °F 8.2 °F 17.6 °F 100% 30.39 in 10.0 mi SSE 6.9 mph - N/A   Clear
5:40 AM 17.6 °F 10.7 °F 17.6 °F 100% 30.39 in 10.0 mi South 4.6 mph - N/A   Clear
6:00 AM 15.8 °F 7.2 °F 15.8 °F 100% 30.38 in 10.0 mi South 5.8 mph - N/A   Clear
6:20 AM 17.6 °F 9.3 °F 17.6 °F 100% 30.38 in 10.0 mi SSE 5.8 mph - N/A   Clear
6:40 AM 17.6 °F 7.3 °F 17.6 °F 100% 30.38 in 10.0 mi SSE 8.1 mph - N/A   Clear
7:00 AM 17.6 °F 7.3 °F 17.6 °F 100% 30.39 in 10.0 mi South 8.1 mph - N/A   Clear
7:20 AM 17.6 °F 8.2 °F 17.6 °F 100% 30.39 in 10.0 mi South 6.9 mph - N/A   Clear
7:40 AM 17.6 °F 8.2 °F 17.6 °F 100% 30.39 in 10.0 mi South 6.9 mph - N/A   Clear
8:00 AM 19.4 °F 10.4 °F 19.4 °F 100% 30.39 in 10.0 mi South 6.9 mph - N/A   Clear
8:20 AM 21.2 °F 12.6 °F 21.2 °F 100% 30.39 in 10.0 mi South 6.9 mph - N/A   Clear
8:40 AM 23.0 °F 13.1 °F 19.4 °F 86% 30.39 in 10.0 mi South 9.2 mph - N/A   Clear
9:00 AM 23.0 °F 11.1 °F 21.2 °F 93% 30.39 in 10.0 mi South 12.7 mph - N/A   Clear
9:20 AM 26.6 °F 16.8 °F 23.0 °F 86% 30.40 in 10.0 mi South 10.4 mph - N/A   Clear
9:40 AM 28.4 °F 17.5 °F 23.0 °F 80% 30.39 in 10.0 mi South 13.8 mph - N/A   Clear
10:00 AM 30.2 °F 19.3 °F 23.0 °F 75% 30.39 in 10.0 mi South 15.0 mph - N/A   Clear
10:20 AM 32.0 °F 21.2 °F 23.0 °F 69% 30.39 in 10.0 mi South 16.1 mph - N/A   Clear
10:40 AM 32.0 °F 22.5 °F 23.0 °F 69% 30.38 in 10.0 mi South 12.7 mph - N/A   Clear
11:00 AM 35.6 °F 27.1 °F 23.0 °F 60% 30.37 in 10.0 mi South 12.7 mph - N/A   Clear
11:20 AM 37.4 °F 28.9 °F 23.0 °F 56% 30.36 in 10.0 mi South 13.8 mph - N/A   Clear
11:40 AM 37.4 °F 28.5 °F 23.0 °F 56% 30.34 in 10.0 mi South 15.0 mph - N/A   Clear
12:00 PM 39.2 °F 31.2 °F 24.8 °F 56% 30.33 in 10.0 mi SSE 13.8 mph 19.6 mph N/A   Clear
12:20 PM 41.0 °F 33.5 °F 24.8 °F 53% 30.31 in 10.0 mi South 13.8 mph - N/A   Clear
12:40 PM 41.0 °F 32.5 °F 24.8 °F 53% 30.30 in 10.0 mi South 17.3 mph - N/A   Clear
1:00 PM 42.8 °F 35.1 °F 26.6 °F 53% 30.28 in 10.0 mi South 16.1 mph - N/A   Clear
1:20 PM 44.6 °F 37.2 °F 26.6 °F 49% 30.27 in 10.0 mi SSE 17.3 mph 23.0 mph N/A   Clear
1:40 PM 44.6 °F 37.2 °F 26.6 °F 49% 30.26 in 10.0 mi SSE 17.3 mph - N/A   Clear
2:00 PM 44.6 °F 37.2 °F 28.4 °F 53% 30.24 in 10.0 mi SSE 17.3 mph 23.0 mph N/A   Clear
2:20 PM 44.6 °F 37.2 °F 28.4 °F 53% 30.23 in 10.0 mi SSE 17.3 mph 24.2 mph N/A   Clear
2:40 PM 44.6 °F 37.4 °F 26.6 °F 49% 30.23 in 10.0 mi South 16.1 mph 25.3 mph N/A   Clear
3:00 PM 46.4 °F 39.8 °F 26.6 °F 46% 30.22 in 10.0 mi SSE 16.1 mph 21.9 mph N/A   Clear
3:20 PM 44.6 °F 37.4 °F 26.6 °F 49% 30.22 in 10.0 mi SSE 16.1 mph 21.9 mph N/A   Clear
3:40 PM 44.6 °F 37.4 °F 26.6 °F 49% 30.21 in 10.0 mi SSE 16.1 mph 24.2 mph N/A   Clear
4:00 PM 44.6 °F 37.2 °F 26.6 °F 49% 30.20 in 10.0 mi SSE 17.3 mph 25.3 mph N/A   Clear
4:20 PM 42.8 °F 34.5 °F 26.6 °F 53% 30.19 in 10.0 mi SSE 18.4 mph 23.0 mph N/A   Clear
4:40 PM 41.0 °F 33.1 °F 26.6 °F 57% 30.19 in 10.0 mi SSE 15.0 mph 19.6 mph N/A   Clear
5:00 PM 41.0 °F 33.1 °F 28.4 °F 61% 30.18 in 10.0 mi SSE 15.0 mph - N/A   Clear
5:20 PM 39.2 °F 32.0 °F 28.4 °F 65% 30.19 in 10.0 mi SSE 11.5 mph 18.4 mph N/A   Clear
5:40 PM 39.2 °F 31.6 °F 28.4 °F 65% 30.18 in 10.0 mi SSE 12.7 mph - N/A   Clear
6:00 PM 39.2 °F 31.6 °F 28.4 °F 65% 30.18 in 10.0 mi South 12.7 mph 18.4 mph N/A   Clear
6:20 PM 37.4 °F 28.9 °F 30.2 °F 75% 30.18 in 10.0 mi South 13.8 mph - N/A   Clear
6:40 PM 37.4 °F 28.5 °F 32.0 °F 81% 30.18 in 10.0 mi South 15.0 mph - N/A   Clear
7:00 PM 37.4 °F 28.5 °F 32.0 °F 81% 30.17 in 10.0 mi South 15.0 mph - N/A   Clear
7:40 PM 39.2 °F 30.2 °F 32.0 °F 75% 30.17 in 10.0 mi South 17.3 mph 23.0 mph N/A   Clear
8:00 PM 37.4 °F 28.2 °F 32.0 °F 81% 30.16 in 10.0 mi South 16.1 mph 20.7 mph N/A   Clear
8:20 PM 37.4 °F 28.5 °F 32.0 °F 81% 30.16 in 10.0 mi South 15.0 mph - N/A   Clear
8:40 PM 37.4 °F 28.9 °F 32.0 °F 81% 30.17 in 10.0 mi South 13.8 mph 20.7 mph N/A   Clear
9:00 PM 37.4 °F 28.9 °F 32.0 °F 81% 30.17 in 10.0 mi South 13.8 mph - N/A   Clear
9:40 PM 37.4 °F 29.3 °F 32.0 °F 81% 30.18 in 10.0 mi South 12.7 mph 18.4 mph N/A   Clear
10:00 PM 37.4 °F 29.8 °F 33.8 °F 87% 30.18 in 10.0 mi South 11.5 mph - N/A   Clear
10:20 PM 37.4 °F 28.9 °F 33.8 °F 87% 30.18 in 10.0 mi South 13.8 mph - N/A   Clear
10:40 PM 37.4 °F 28.9 °F 33.8 °F 87% 30.17 in 10.0 mi South 13.8 mph - N/A   Clear
11:00 PM 37.4 °F 29.3 °F 35.6 °F 93% 30.17 in 10.0 mi South 12.7 mph - N/A   Clear
11:20 PM 37.4 °F 28.9 °F 35.6 °F 93% 30.17 in 10.0 mi South 13.8 mph 17.3 mph N/A   Clear
11:40 PM 37.4 °F 28.9 °F 35.6 °F 93% 30.17 in 10.0 mi South 13.8 mph - N/A   Clear